TITAN 3C TRANSTAGE DEB, 2799

Orbit data source: Space-Track

TITAN 3C TRANSTAGE DEB, 2799 is space debris in LEO originally from a launch on Fri, 15 Oct 1965 UTC launched from the Air Force Eastern Test Range (AFETR). Debris objects in space refer to the collection of defunct objects orbiting the Earth. Examples of debris include non-operational satellites, rocket bodies, and fragments generated from explosions, collisions, or faulty payload assembly.

Loading next visibility...
Identifier
2799, 1965-082KX
Orbit
LEO
Country
Flag of USUS
Related business
Manufacturer
Unknown
Mission
Spacecraft
Bus & Motor
Unknown
Mass
Unknown
Launch date (UTC)
1965-10-15 (61 years ago)
Launch vehicle
Unknown
Launch site
Air Force Eastern Test Range (AFETR)
Object type
Payload
Rocket body
Debris
Shape & HBR
Unknown shape, 0.1 m
Radar Cross Section
Small (<0.1 m²)

Expand to show TLE details & history
Last TLE update: 19 hours ago

TLE from 19 hours ago
0 TITAN 3C TRANSTAGE DEB
1 02799U 65082KX  26110.03223877  .00000981  00000-0  13867-3 0  9996
2 02799  32.0569 334.4906 0032809 103.0266  46.2130 14.74038117147568
Epoch: 2026-04-20T00:46Z
TLE epoch observation values (Epoch: 2026-04-20T00:46:25.429Z)
Latitude
15.67931°
Longitude
-91.71722°
Altitude
630.249 km
Speed
7.555 km/s
True Right ascension
08h 32m 04s
True Declination
15° 35' 18"
Sunlit
Object was in daylight at epoch
Visualization orbit readout
Latitude
Unknown
Longitude
Unknown
Altitude
Unknown
Speed
Unknown
Apparent Right ascension
Unknown
Apparent Declination
Unknown
Sunlit
N/A
Visualization observer readout
Local Sidereal Time
02:31:21
Azimuth
Unknown
Elevation
Unknown
Doppler factor
Unknown
Orbital elements
Apogee altitude
674.896 km
Perigee altitude
628.767 km
Semi-major axis
7,029.968 km
Eccentricity
0.00328
Inclination
32.0569°
RAAN
334.4906°
Arg. of periapsis
103.0266°
True anomaly
46.48519°
Mean anomaly
46.213°
Eccentric anomaly
46.34902°
Mean motion
3.68225 °/min
Orbital period
97.77 mins
BSTAR
0.00013867

Documentation

Showing up to 5 results
|